Tracking 29042 objects as of 22-Jun-2024
HD Live streaming from Space Station
objects crossing your sky now

YUNHAI 2 4

Track YUNHAI 2 4 now!
10-day predictions


NORAD ID: 43912
Int'l Code: 2018-112D
Perigee: 793.1 km
Apogee: 815.8 km
Inclination: 50.0 °
Period: 100.8 minutes
Semi major axis: 7175 km
RCS: Unknown
Launch date: December 29, 2018
Source: People's Republic of China (PRC)
Launch site: Jiuquan Satellite Launch Center, China (JSC)
Your satellite tracking list
Your tracking list is empty




NASA's NSSDC Master Catalog

Two Line Element Set (TLE):
1 43912U 18112D   24173.87537189  .00000152  00000-0  12448-3 0  9997
2 43912  50.0109 124.8736 0015811 319.5638  40.4101 14.28318847283883
Source of the keplerian elements: AFSPC